| time (UTC) | temp C | wind direction | speed KPH | gust KPH | rain 1hr cm | rain 24hr cm | rain mn cm | humidity % | barometer mb |
| 20260904115823 | 18 | 173 | 3.2 | 6.4 | 0.00 | 0.00 | 0.00 | 35 | 1021.0 |
| 20260904115325 | 18 | 24 | 3.2 | 6.4 | 0.00 | 0.00 | 0.00 | 34 | 1021.0 |
| 20260904114824 | 18 | 344 | 1.6 | 4.8 | 0.00 | 0.00 | 0.00 | 34 | 1021.0 |
| 20260904114323 | 19 | 65 | 0.0 | 3.2 | 0.00 | 0.00 | 0.00 | 34 | 1021.0 |
| 20260904113822 | 19 | 4 | 0.0 | 1.6 | 0.00 | 0.00 | 0.00 | 32 | 1021.0 |
| 20260904113324 | 19 | 17 | 3.2 | 8.0 | 0.00 | 0.00 | 0.00 | 33 | 1021.0 |
| 20260904112822 | 19 | 327 | 3.2 | 4.8 | 0.00 | 0.00 | 0.00 | 32 | 1021.0 |
| 20260904112323 | 19 | 346 | 4.8 | 6.4 | 0.00 | 0.00 | 0.00 | 32 | 1021.0 |
| 20260904111822 | 19 | 349 | 3.2 | 8.0 | 0.00 | 0.00 | 0.00 | 33 | 1021.0 |
| 20260904111322 | 18 | 323 | 1.6 | 4.8 | 0.00 | 0.00 | 0.00 | 33 | 1021.0 |
| 20260904110822 | 19 | 7 | 0.0 | 3.2 | 0.00 | 0.00 | 0.00 | 33 | 1021.0 |
| 20260904110322 | 18 | 15 | 3.2 | 3.2 | 0.00 | 0.00 | 0.00 | 33 | 1021.0 |
| 20260904105822 | 18 | 13 | 4.8 | 6.4 | 0.00 | 0.00 | 0.00 | 34 | 1021.0 |
| 20260904105323 | 19 | 334 | 3.2 | 6.4 | 0.00 | 0.00 | 0.00 | 33 | 1021.0 |
| 20260904104822 | 19 | 358 | 6.4 | 11.3 | 0.00 | 0.00 | 0.00 | 32 | 1021.0 |
| 20260904104322 | 19 | 346 | 3.2 | 6.4 | 0.00 | 0.00 | 0.00 | 33 | 1021.0 |
| 20260904103823 | 20 | 325 | 4.8 | 8.0 | 0.00 | 0.00 | 0.00 | 32 | 1021.0 |
| 20260904103321 | 20 | 39 | 1.6 | 3.2 | 0.00 | 0.00 | 0.00 | 31 | 1021.0 |
| 20260904102823 | 20 | 19 | 3.2 | 3.2 | 0.00 | 0.00 | 0.00 | 32 | 1021.0 |
| 20260904102323 | 19 | 159 | 6.4 | 11.3 | 0.00 | 0.00 | 0.00 | 31 | 1021.0 |
| 20260904101822 | 19 | 197 | 3.2 | 6.4 | 0.00 | 0.00 | 0.00 | 33 | 1021.0 |
| 20260904101322 | 18 | 345 | 3.2 | 4.8 | 0.00 | 0.00 | 0.00 | 32 | 1021.0 |
| 20260904100822 | 18 | 334 | 3.2 | 6.4 | 0.00 | 0.00 | 0.00 | 34 | 1021.0 |
| 20260904100323 | 18 | 267 | 3.2 | 3.2 | 0.00 | 0.00 | 0.00 | 36 | 1021.0 |
| 20260904095822 | 18 | 308 | 4.8 | 6.4 | 0.00 | 0.00 | 0.00 | 35 | 1021.0 |
| 20260904095322 | 18 | 67 | 3.2 | 6.4 | 0.00 | 0.00 | 0.00 | 36 | 1021.0 |
| 20260904094822 | 17 | 51 | 6.4 | 8.0 | 0.00 | 0.00 | 0.00 | 36 | 1021.0 |
| 20260904094322 | 17 | 3 | 3.2 | 4.8 | 0.00 | 0.00 | 0.00 | 38 | 1021.0 |
| 20260904093823 | 18 | 40 | 3.2 | 3.2 | 0.00 | 0.00 | 0.00 | 35 | 1021.0 |
| 20260904093323 | 17 | 215 | 1.6 | 4.8 | 0.00 | 0.00 | 0.00 | 36 | 1021.0 |
| 20260904092822 | 17 | 319 | 3.2 | 3.2 | 0.00 | 0.00 | 0.00 | 40 | 1021.0 |
| 20260904092323 | 16 | 194 | 3.2 | 6.4 | 0.00 | 0.00 | 0.00 | 38 | 1021.0 |
| 20260904091822 | 16 | 67 | 4.8 | 9.7 | 0.00 | 0.00 | 0.00 | 44 | 1020.0 |
| 20260904091323 | 15 | 76 | 6.4 | 11.3 | 0.00 | 0.00 | 0.00 | 47 | 1020.0 |
| 20260904090822 | 14 | 51 | 1.6 | 4.8 | 0.00 | 0.00 | 0.00 | 52 | 1020.0 |
| 20260904090322 | 14 | 34 | 3.2 | 6.4 | 0.00 | 0.00 | 0.00 | 54 | 1020.0 |
| 20260904085822 | 14 | 23 | 4.8 | 6.4 | 0.00 | 0.00 | 0.00 | 56 | 1020.0 |
| 20260904085322 | 14 | 22 | 6.4 | 8.0 | 0.00 | 0.00 | 0.00 | 54 | 1020.0 |
| 20260904084826 | 14 | 2 | 3.2 | 4.8 | 0.00 | 0.00 | 0.00 | 59 | 1020.0 |
| 20260904084322 | 13 | 25 | 1.6 | 3.2 | 0.00 | 0.00 | 0.00 | 60 | 1020.0 |
| 20260904083822 | 13 | 285 | 1.6 | 1.6 | 0.00 | 0.00 | 0.00 | 63 | 1021.0 |
| 20260904083323 | 13 | 210 | 6.4 | 8.0 | 0.00 | 0.00 | 0.00 | 64 | 1021.0 |
| 20260904082823 | 13 | 44 | 3.2 | 4.8 | 0.00 | 0.00 | 0.00 | 63 | 1020.0 |
| 20260904082323 | 13 | 3 | 4.8 | 8.0 | 0.00 | 0.00 | 0.00 | 61 | 1021.0 |
| 20260904081823 | 14 | 354 | 4.8 | 6.4 | 0.00 | 0.00 | 0.00 | 59 | 1021.0 |
| 20260904081322 | 14 | 325 | 3.2 | 4.8 | 0.00 | 0.00 | 0.00 | 59 | 1021.0 |
| 20260904080822 | 14 | 346 | 3.2 | 4.8 | 0.00 | 0.00 | 0.00 | 59 | 1021.0 |
| 20260904080322 | 14 | 354 | 3.2 | 6.4 | 0.00 | 0.00 | 0.00 | 59 | 1021.0 |
| 20260904075822 | 14 | 360 | 1.6 | 3.2 | 0.00 | 0.00 | 0.00 | 57 | 1021.0 |
| 20260904075322 | 14 | 19 | 3.2 | 4.8 | 0.00 | 0.00 | 0.00 | 57 | 1021.0 |
| 20260904074822 | 14 | 355 | 3.2 | 3.2 | 0.00 | 0.00 | 0.00 | 57 | 1021.0 |
| 20260904074322 | 14 | 3 | 3.2 | 6.4 | 0.00 | 0.00 | 0.00 | 58 | 1021.0 |
| 20260904073823 | 14 | 353 | 1.6 | 3.2 | 0.00 | 0.00 | 0.00 | 60 | 1021.0 |
| 20260904073322 | 15 | 22 | 3.2 | 4.8 | 0.00 | 0.00 | 0.00 | 55 | 1021.0 |
| 20260904072822 | 14 | 13 | 3.2 | 8.0 | 0.00 | 0.00 | 0.00 | 55 | 1021.0 |
| 20260904072322 | 14 | 351 | 3.2 | 4.8 | 0.00 | 0.00 | 0.00 | 58 | 1021.0 |
| 20260904071822 | 13 | 343 | 4.8 | 6.4 | 0.00 | 0.00 | 0.00 | 59 | 1021.0 |
| 20260904071322 | 14 | 349 | 4.8 | 8.0 | 0.00 | 0.00 | 0.00 | 60 | 1021.0 |
| 20260904070822 | 15 | 6 | 3.2 | 6.4 | 0.00 | 0.00 | 0.00 | 60 | 1021.0 |
| 20260904070324 | 16 | 350 | 3.2 | 6.4 | 0.00 | 0.00 | 0.00 | 56 | 1021.0 |
| 20260904065822 | 16 | 292 | 6.4 | 8.0 | 0.00 | 0.00 | 0.00 | 57 | 1021.0 |
| 20260904065322 | 16 | 282 | 6.4 | 8.0 | 0.00 | 0.00 | 0.00 | 57 | 1021.0 |
| 20260904064822 | 16 | 262 | 1.6 | 3.2 | 0.00 | 0.00 | 0.00 | 56 | 1021.0 |
| 20260904064322 | 16 | 288 | 1.6 | 3.2 | 0.00 | 0.00 | 0.00 | 58 | 1021.0 |
| 20260904063822 | 16 | 283 | 6.4 | 6.4 | 0.00 | 0.00 | 0.00 | 59 | 1021.0 |
| 20260904063322 | 16 | 295 | 8.0 | 9.7 | 0.00 | 0.00 | 0.00 | 57 | 1021.0 |
| 20260904062822 | 16 | 287 | 6.4 | 8.0 | 0.00 | 0.00 | 0.00 | 58 | 1021.0 |
| 20260904062324 | 16 | 289 | 8.0 | 11.3 | 0.00 | 0.00 | 0.00 | 59 | 1021.0 |
| 20260904061822 | 16 | 283 | 6.4 | 9.7 | 0.00 | 0.00 | 0.00 | 58 | 1021.0 |
| 20260904061323 | 17 | 278 | 4.8 | 9.7 | 0.00 | 0.00 | 0.00 | 50 | 1021.0 |
| 20260904060822 | 17 | 360 | 0.0 | 0.0 | 0.00 | 0.00 | 0.00 | 54 | 1021.0 |
| 20260904060324 | 17 | 285 | 3.2 | 4.8 | 0.00 | 0.00 | 0.00 | 53 | 1021.0 |
| 20260904055822 | 17 | 288 | 11.3 | 14.5 | 0.00 | 0.00 | 0.00 | 57 | 1021.0 |
| 20260904055323 | 17 | 344 | 1.6 | 3.2 | 0.00 | 0.00 | 0.00 | 45 | 1021.0 |
| 20260904054823 | 18 | 297 | 1.6 | 1.6 | 0.00 | 0.00 | 0.00 | 45 | 1021.0 |
| 20260904054322 | 18 | 360 | 0.0 | 0.0 | 0.00 | 0.00 | 0.00 | 43 | 1021.0 |
| 20260904053822 | 18 | 360 | 0.0 | 0.0 | 0.00 | 0.00 | 0.00 | 43 | 1021.0 |
| 20260904053322 | 18 | 145 | 0.0 | 3.2 | 0.00 | 0.00 | 0.00 | 41 | 1021.0 |
| 20260904052822 | 19 | 135 | 0.0 | 0.0 | 0.00 | 0.00 | 0.00 | 40 | 1021.0 |
| 20260904052323 | 19 | 120 | 3.2 | 3.2 | 0.00 | 0.00 | 0.00 | 40 | 1021.0 |
| 20260904051822 | 19 | 160 | 1.6 | 3.2 | 0.00 | 0.00 | 0.00 | 40 | 1021.0 |
| 20260904051322 | 19 | 192 | 3.2 | 4.8 | 0.00 | 0.00 | 0.00 | 40 | 1021.0 |
| 20260904050822 | 20 | 195 | 3.2 | 3.2 | 0.00 | 0.00 | 0.00 | 39 | 1021.0 |
| 20260904050322 | 20 | 169 | 3.2 | 4.8 | 0.00 | 0.00 | 0.00 | 38 | 1021.0 |
| 20260904045823 | 19 | 170 | 4.8 | 6.4 | 0.00 | 0.00 | 0.00 | 39 | 1022.0 |
| 20260904045322 | 19 | 137 | 0.0 | 1.6 | 0.00 | 0.00 | 0.00 | 39 | 1022.0 |
| 20260904044822 | 19 | 133 | 3.2 | 4.8 | 0.00 | 0.00 | 0.00 | 38 | 1022.0 |
| 20260904044322 | 19 | 140 | 3.2 | 4.8 | 0.00 | 0.00 | 0.00 | 38 | 1022.0 |
| 20260904043825 | 19 | 155 | 4.8 | 6.4 | 0.00 | 0.00 | 0.00 | 38 | 1022.0 |
| 20260904043323 | 20 | 167 | 3.2 | 4.8 | 0.00 | 0.00 | 0.00 | 38 | 1022.0 |
| 20260904042824 | 20 | 152 | 4.8 | 6.4 | 0.00 | 0.00 | 0.00 | 36 | 1022.0 |
| 20260904042326 | 20 | 176 | 6.4 | 8.0 | 0.00 | 0.00 | 0.00 | 36 | 1022.0 |
| 20260904041822 | 20 | 175 | 4.8 | 6.4 | 0.00 | 0.00 | 0.00 | 37 | 1022.0 |
| 20260904041323 | 19 | 164 | 6.4 | 9.7 | 0.00 | 0.00 | 0.00 | 37 | 1022.0 |
| 20260904040822 | 18 | 169 | 3.2 | 6.4 | 0.00 | 0.00 | 0.00 | 40 | 1022.0 |
| 20260904040323 | 18 | 227 | 4.8 | 6.4 | 0.00 | 0.00 | 0.00 | 45 | 1022.0 |
| 20260904035822 | 18 | 146 | 3.2 | 6.4 | 0.00 | 0.00 | 0.00 | 40 | 1022.0 |
| 20260904035326 | 18 | 135 | 0.0 | 3.2 | 0.00 | 0.00 | 0.00 | 44 | 1022.0 |
| 20260904034823 | 18 | 289 | 1.6 | 3.2 | 0.00 | 0.00 | 0.00 | 44 | 1021.0 |
| 20260904034322 | 19 | 278 | 0.0 | 1.6 | 0.00 | 0.00 | 0.00 | 38 | 1021.0 |
| 20260904033822 | 19 | 90 | 0.0 | 1.6 | 0.00 | 0.00 | 0.00 | 36 | 1021.0 |
| 20260904033322 | 19 | 142 | 0.0 | 3.2 | 0.00 | 0.00 | 0.00 | 36 | 1021.0 |
| 20260904032823 | 19 | 92 | 0.0 | 3.2 | 0.00 | 0.00 | 0.00 | 36 | 1021.0 |
| 20260904032323 | 19 | 348 | 0.0 | 1.6 | 0.00 | 0.00 | 0.00 | 35 | 1021.0 |
| 20260904031822 | 20 | 303 | 3.2 | 4.8 | 0.00 | 0.00 | 0.00 | 36 | 1021.0 |
| 20260904031324 | 20 | 27 | 1.6 | 3.2 | 0.00 | 0.00 | 0.00 | 34 | 1021.0 |
| 20260904030823 | 20 | 360 | 0.0 | 1.6 | 0.00 | 0.00 | 0.00 | 35 | 1021.0 |
| 20260904030322 | 20 | 304 | 1.6 | 3.2 | 0.00 | 0.00 | 0.00 | 36 | 1021.0 |
| 20260904025822 | 20 | 360 | 0.0 | 0.0 | 0.00 | 0.00 | 0.00 | 34 | 1021.0 |
| 20260904025322 | 21 | 284 | 0.0 | 1.6 | 0.00 | 0.00 | 0.00 | 34 | 1021.0 |
| 20260904024822 | 21 | 360 | 0.0 | 0.0 | 0.00 | 0.00 | 0.00 | 34 | 1021.0 |
| 20260904024323 | 21 | 360 | 0.0 | 0.0 | 0.00 | 0.00 | 0.00 | 34 | 1021.0 |
| 20260904023822 | 22 | 292 | 0.0 | 1.6 | 0.00 | 0.00 | 0.00 | 34 | 1021.0 |
| 20260904023324 | 22 | 151 | 1.6 | 3.2 | 0.00 | 0.00 | 0.00 | 30 | 1020.0 |
| 20260904022823 | 22 | 360 | 0.0 | 0.0 | 0.00 | 0.00 | 0.00 | 30 | 1020.0 |
| 20260904022322 | 23 | 221 | 0.0 | 1.6 | 0.00 | 0.00 | 0.00 | 29 | 1020.0 |
| 20260904021822 | 23 | 218 | 3.2 | 4.8 | 0.00 | 0.00 | 0.00 | 29 | 1020.0 |
| 20260904021322 | 23 | 194 | 4.8 | 6.4 | 0.00 | 0.00 | 0.00 | 27 | 1020.0 |
| 20260904020823 | 23 | 167 | 4.8 | 8.0 | 0.00 | 0.00 | 0.00 | 27 | 1020.0 |
| 20260904020323 | 23 | 191 | 6.4 | 6.4 | 0.00 | 0.00 | 0.00 | 27 | 1020.0 |
| 20260904015823 | 23 | 188 | 4.8 | 9.7 | 0.00 | 0.00 | 0.00 | 28 | 1020.0 |
| 20260904015323 | 24 | 196 | 4.8 | 6.4 | 0.00 | 0.00 | 0.00 | 28 | 1020.0 |
| 20260904014822 | 24 | 189 | 3.2 | 6.4 | 0.00 | 0.00 | 0.00 | 28 | 1020.0 |
| 20260904014322 | 24 | 189 | 6.4 | 9.7 | 0.00 | 0.00 | 0.00 | 27 | 1020.0 |
| 20260904013823 | 24 | 203 | 4.8 | 8.0 | 0.00 | 0.00 | 0.00 | 27 | 1020.0 |
| 20260904013326 | 24 | 196 | 6.4 | 14.5 | 0.00 | 0.00 | 0.00 | 27 | 1020.0 |
| 20260904012823 | 25 | 196 | 6.4 | 8.0 | 0.00 | 0.00 | 0.00 | 27 | 1020.0 |
| 20260904012323 | 25 | 192 | 4.8 | 6.4 | 0.00 | 0.00 | 0.00 | 27 | 1020.0 |
| 20260904011823 | 25 | 202 | 3.2 | 6.4 | 0.00 | 0.00 | 0.00 | 26 | 1020.0 |
| 20260904011324 | 26 | 205 | 4.8 | 8.0 | 0.00 | 0.00 | 0.00 | 25 | 1020.0 |
| 20260904010822 | 26 | 183 | 6.4 | 9.7 | 0.00 | 0.00 | 0.00 | 24 | 1020.0 |
| 20260904010323 | 26 | 190 | 6.4 | 8.0 | 0.00 | 0.00 | 0.00 | 24 | 1020.0 |
| 20260904005822 | 27 | 182 | 8.0 | 11.3 | 0.00 | 0.00 | 0.00 | 23 | 1020.0 |
| 20260904005322 | 27 | 197 | 6.4 | 9.7 | 0.00 | 0.00 | 0.00 | 23 | 1020.0 |
| 20260904004822 | 27 | 176 | 8.0 | 9.7 | 0.00 | 0.00 | 0.00 | 23 | 1020.0 |
| 20260904004322 | 27 | 169 | 6.4 | 9.7 | 0.00 | 0.00 | 0.00 | 23 | 1020.0 |
| 20260904003823 | 27 | 179 | 8.0 | 12.9 | 0.00 | 0.00 | 0.00 | 22 | 1020.0 |
| 20260904003322 | 27 | 187 | 8.0 | 11.3 | 0.00 | 0.00 | 0.00 | 22 | 1020.0 |
| 20260904002823 | 27 | 227 | 3.2 | 6.4 | 0.00 | 0.00 | 0.00 | 23 | 1020.0 |
| 20260904002322 | 27 | 246 | 4.8 | 11.3 | 0.00 | 0.00 | 0.00 | 23 | 1020.0 |
| 20260904001823 | 28 | 203 | 6.4 | 8.0 | 0.00 | 0.00 | 0.00 | 22 | 1020.0 |
| 20260904001323 | 28 | 181 | 8.0 | 11.3 | 0.00 | 0.00 | 0.00 | 22 | 1020.0 |
| 20260904000822 | 28 | 195 | 6.4 | 9.7 | 0.00 | 0.00 | 0.00 | 23 | 1020.0 |
| 20260904000323 | 28 | 208 | 8.0 | 11.3 | 0.00 | 0.00 | 0.00 | 22 | 1020.0 |
| 20260903235822 | 28 | 226 | 8.0 | 14.5 | 0.00 | 0.00 | 0.00 | 22 | 1020.0 |
| 20260903235324 | 28 | 183 | 11.3 | 14.5 | 0.00 | 0.00 | 0.00 | 22 | 1020.0 |
| 20260903234822 | 28 | 193 | 8.0 | 11.3 | 0.00 | 0.00 | 0.00 | 22 | 1020.0 |
| 20260903234322 | 29 | 220 | 8.0 | 14.5 | 0.00 | 0.00 | 0.00 | 22 | 1020.0 |
| 20260903233822 | 28 | 193 | 6.4 | 11.3 | 0.00 | 0.00 | 0.00 | 22 | 1020.0 |
| 20260903233322 | 28 | 155 | 6.4 | 9.7 | 0.00 | 0.00 | 0.00 | 22 | 1020.0 |
| 20260903232822 | 27 | 152 | 8.0 | 9.7 | 0.00 | 0.00 | 0.00 | 22 | 1020.0 |
| 20260903232322 | 27 | 145 | 4.8 | 6.4 | 0.00 | 0.00 | 0.00 | 23 | 1020.0 |
| 20260903231822 | 27 | 149 | 9.7 | 12.9 | 0.00 | 0.00 | 0.00 | 23 | 1020.0 |
| 20260903231323 | 27 | 149 | 8.0 | 12.9 | 0.00 | 0.00 | 0.00 | 24 | 1020.0 |
| 20260903230822 | 27 | 148 | 6.4 | 8.0 | 0.00 | 0.00 | 0.00 | 23 | 1020.0 |
| 20260903230322 | 28 | 130 | 4.8 | 8.0 | 0.00 | 0.00 | 0.00 | 23 | 1020.0 |
| 20260903225822 | 28 | 167 | 6.4 | 9.7 | 0.00 | 0.00 | 0.00 | 24 | 1020.0 |
| 20260903225323 | 28 | 138 | 12.9 | 16.1 | 0.00 | 0.00 | 0.00 | 23 | 1020.0 |
| 20260903224822 | 28 | 148 | 11.3 | 14.5 | 0.00 | 0.00 | 0.00 | 23 | 1020.0 |
| 20260903224323 | 28 | 168 | 9.7 | 14.5 | 0.00 | 0.00 | 0.00 | 22 | 1020.0 |
| 20260903223822 | 28 | 178 | 6.4 | 9.7 | 0.00 | 0.00 | 0.00 | 24 | 1020.0 |
| 20260903223322 | 28 | 152 | 9.7 | 12.9 | 0.00 | 0.00 | 0.00 | 23 | 1020.0 |
| 20260903222822 | 28 | 198 | 4.8 | 6.4 | 0.00 | 0.00 | 0.00 | 23 | 1020.0 |
| 20260903222322 | 28 | 208 | 6.4 | 9.7 | 0.00 | 0.00 | 0.00 | 21 | 1020.0 |
| 20260903221822 | 28 | 168 | 4.8 | 6.4 | 0.00 | 0.00 | 0.00 | 21 | 1020.0 |
| 20260903221322 | 29 | 183 | 8.0 | 11.3 | 0.00 | 0.00 | 0.00 | 22 | 1020.0 |
| 20260903220822 | 29 | 211 | 8.0 | 11.3 | 0.00 | 0.00 | 0.00 | 20 | 1020.0 |
| 20260903220322 | 29 | 161 | 11.3 | 14.5 | 0.00 | 0.00 | 0.00 | 21 | 1020.0 |
| 20260903215822 | 29 | 182 | 6.4 | 9.7 | 0.00 | 0.00 | 0.00 | 20 | 1020.0 |
| 20260903215322 | 30 | 163 | 11.3 | 16.1 | 0.00 | 0.00 | 0.00 | 20 | 1020.0 |
| 20260903214823 | 29 | 293 | 3.2 | 6.4 | 0.00 | 0.00 | 0.00 | 21 | 1020.0 |
| 20260903214322 | 29 | 293 | 6.4 | 11.3 | 0.00 | 0.00 | 0.00 | 20 | 1020.0 |
| 20260903213823 | 29 | 292 | 9.7 | 14.5 | 0.00 | 0.00 | 0.00 | 20 | 1020.0 |
| 20260903213324 | 29 | 283 | 11.3 | 12.9 | 0.00 | 0.00 | 0.00 | 19 | 1020.0 |
| 20260903212823 | 29 | 332 | 6.4 | 11.3 | 0.00 | 0.00 | 0.00 | 19 | 1020.0 |
| 20260903212323 | 28 | 293 | 9.7 | 16.1 | 0.00 | 0.00 | 0.00 | 19 | 1020.0 |
| 20260903211822 | 28 | 287 | 11.3 | 17.7 | 0.00 | 0.00 | 0.00 | 20 | 1021.0 |
| 20260903211322 | 28 | 266 | 11.3 | 17.7 | 0.00 | 0.00 | 0.00 | 19 | 1021.0 |
| 20260903210822 | 28 | 289 | 9.7 | 14.5 | 0.00 | 0.00 | 0.00 | 19 | 1021.0 |
| 20260903210322 | 28 | 248 | 6.4 | 14.5 | 0.00 | 0.00 | 0.00 | 18 | 1021.0 |
| 20260903205823 | 28 | 236 | 12.9 | 25.7 | 0.00 | 0.00 | 0.00 | 19 | 1021.0 |
| 20260903205323 | 28 | 256 | 12.9 | 19.3 | 0.00 | 0.00 | 0.00 | 19 | 1021.0 |
| 20260903204823 | 28 | 269 | 11.3 | 14.5 | 0.00 | 0.00 | 0.00 | 19 | 1021.0 |
| 20260903204322 | 28 | 261 | 9.7 | 14.5 | 0.00 | 0.00 | 0.00 | 19 | 1021.0 |
| 20260903203824 | 28 | 186 | 6.4 | 9.7 | 0.00 | 0.00 | 0.00 | 22 | 1021.0 |
| 20260903203322 | 28 | 168 | 8.0 | 12.9 | 0.00 | 0.00 | 0.00 | 22 | 1021.0 |
| 20260903202822 | 28 | 200 | 8.0 | 12.9 | 0.00 | 0.00 | 0.00 | 21 | 1021.0 |
| 20260903202322 | 29 | 239 | 8.0 | 14.5 | 0.00 | 0.00 | 0.00 | 18 | 1021.0 |
| 20260903201822 | 29 | 195 | 8.0 | 11.3 | 0.00 | 0.00 | 0.00 | 18 | 1021.0 |
| 20260903201323 | 28 | 183 | 8.0 | 14.5 | 0.00 | 0.00 | 0.00 | 18 | 1021.0 |
| 20260903200824 | 28 | 163 | 8.0 | 12.9 | 0.00 | 0.00 | 0.00 | 19 | 1021.0 |
| 20260903200322 | 28 | 117 | 1.6 | 4.8 | 0.00 | 0.00 | 0.00 | 21 | 1021.0 |
| 20260903195822 | 28 | 174 | 6.4 | 6.4 | 0.00 | 0.00 | 0.00 | 21 | 1021.0 |
| 20260903195322 | 28 | 201 | 6.4 | 8.0 | 0.00 | 0.00 | 0.00 | 22 | 1021.0 |
| 20260903194823 | 28 | 151 | 3.2 | 8.0 | 0.00 | 0.00 | 0.00 | 22 | 1021.0 |
| 20260903194323 | 28 | 246 | 6.4 | 11.3 | 0.00 | 0.00 | 0.00 | 22 | 1021.0 |
| 20260903193822 | 28 | 182 | 6.4 | 11.3 | 0.00 | 0.00 | 0.00 | 21 | 1021.0 |
| 20260903193323 | 28 | 194 | 9.7 | 14.5 | 0.00 | 0.00 | 0.00 | 21 | 1021.0 |
| 20260903192823 | 28 | 225 | 6.4 | 14.5 | 0.00 | 0.00 | 0.00 | 22 | 1021.0 |
| 20260903192322 | 27 | 250 | 9.7 | 16.1 | 0.00 | 0.00 | 0.00 | 22 | 1021.0 |
| 20260903191823 | 27 | 298 | 9.7 | 14.5 | 0.00 | 0.00 | 0.00 | 22 | 1021.0 |
| 20260903191323 | 27 | 246 | 9.7 | 14.5 | 0.00 | 0.00 | 0.00 | 23 | 1022.0 |
| 20260903190822 | 27 | 245 | 12.9 | 22.5 | 0.00 | 0.00 | 0.00 | 23 | 1022.0 |
| 20260903190322 | 27 | 308 | 6.4 | 9.7 | 0.00 | 0.00 | 0.00 | 24 | 1022.0 |
| 20260903185822 | 27 | 245 | 12.9 | 17.7 | 0.00 | 0.00 | 0.00 | 24 | 1022.0 |
| 20260903185323 | 27 | 250 | 9.7 | 17.7 | 0.00 | 0.00 | 0.00 | 24 | 1022.0 |
| 20260903184822 | 27 | 157 | 9.7 | 12.9 | 0.00 | 0.00 | 0.00 | 24 | 1022.0 |
| 20260903184323 | 26 | 273 | 8.0 | 14.5 | 0.00 | 0.00 | 0.00 | 25 | 1022.0 |
| 20260903183823 | 27 | 199 | 8.0 | 11.3 | 0.00 | 0.00 | 0.00 | 25 | 1022.0 |
| 20260903183322 | 27 | 273 | 11.3 | 16.1 | 0.00 | 0.00 | 0.00 | 25 | 1022.0 |
| 20260903182822 | 26 | 298 | 9.7 | 14.5 | 0.00 | 0.00 | 0.00 | 25 | 1022.0 |
| 20260903182324 | 27 | 288 | 14.5 | 17.7 | 0.00 | 0.00 | 0.00 | 27 | 1022.0 |
| 20260903181822 | 26 | 316 | 8.0 | 12.9 | 0.00 | 0.00 | 0.00 | 24 | 1022.0 |
| 20260903181323 | 26 | 287 | 9.7 | 17.7 | 0.00 | 0.00 | 0.00 | 26 | 1022.0 |
| 20260903180824 | 26 | 290 | 8.0 | 12.9 | 0.00 | 0.00 | 0.00 | 26 | 1022.0 |
| 20260903180323 | 26 | 287 | 4.8 | 8.0 | 0.00 | 0.00 | 0.00 | 27 | 1022.0 |
| 20260903175822 | 26 | 271 | 8.0 | 16.1 | 0.00 | 0.00 | 0.00 | 26 | 1022.0 |
| 20260903175324 | 26 | 309 | 4.8 | 6.4 | 0.00 | 0.00 | 0.00 | 26 | 1022.0 |
| 20260903174823 | 26 | 288 | 9.7 | 12.9 | 0.00 | 0.00 | 0.00 | 27 | 1023.0 |
| 20260903174322 | 26 | 311 | 11.3 | 14.5 | 0.00 | 0.00 | 0.00 | 26 | 1023.0 |
| 20260903173826 | 26 | 302 | 9.7 | 14.5 | 0.00 | 0.00 | 0.00 | 26 | 1023.0 |
| 20260903173326 | 26 | 200 | 8.0 | 11.3 | 0.00 | 0.00 | 0.00 | 26 | 1023.0 |
| 20260903172824 | 26 | 152 | 4.8 | 12.9 | 0.00 | 0.00 | 0.00 | 26 | 1023.0 |
| 20260903172322 | 25 | 279 | 9.7 | 14.5 | 0.00 | 0.00 | 0.00 | 27 | 1023.0 |
| 20260903171823 | 25 | 287 | 6.4 | 12.9 | 0.00 | 0.00 | 0.00 | 28 | 1023.0 |
| 20260903171322 | 25 | 273 | 12.9 | 20.9 | 0.00 | 0.00 | 0.00 | 26 | 1023.0 |
| 20260903170823 | 26 | 265 | 14.5 | 20.9 | 0.00 | 0.00 | 0.00 | 25 | 1023.0 |
| 20260903170323 | 25 | 286 | 4.8 | 9.7 | 0.00 | 0.00 | 0.00 | 26 | 1023.0 |
| 20260903165822 | 25 | 277 | 9.7 | 14.5 | 0.00 | 0.00 | 0.00 | 27 | 1023.0 |
| 20260903165322 | 25 | 238 | 12.9 | 17.7 | 0.00 | 0.00 | 0.00 | 27 | 1023.0 |
| 20260903164823 | 25 | 267 | 8.0 | 12.9 | 0.00 | 0.00 | 0.00 | 27 | 1023.0 |
| 20260903164323 | 25 | 272 | 9.7 | 16.1 | 0.00 | 0.00 | 0.00 | 29 | 1023.0 |
| 20260903163823 | 25 | 285 | 8.0 | 11.3 | 0.00 | 0.00 | 0.00 | 30 | 1023.0 |
| 20260903163325 | 25 | 299 | 11.3 | 14.5 | 0.00 | 0.00 | 0.00 | 28 | 1023.0 |
| 20260903162822 | 25 | 248 | 9.7 | 12.9 | 0.00 | 0.00 | 0.00 | 29 | 1023.0 |
| 20260903162324 | 24 | 251 | 9.7 | 14.5 | 0.00 | 0.00 | 0.00 | 30 | 1023.0 |
| 20260903161822 | 24 | 283 | 14.5 | 20.9 | 0.00 | 0.00 | 0.00 | 29 | 1022.0 |
| 20260903161323 | 24 | 275 | 8.0 | 11.3 | 0.00 | 0.00 | 0.00 | 30 | 1023.0 |
| 20260903160823 | 24 | 246 | 9.7 | 14.5 | 0.00 | 0.00 | 0.00 | 31 | 1023.0 |
| 20260903160324 | 24 | 271 | 8.0 | 11.3 | 0.00 | 0.00 | 0.00 | 30 | 1023.0 |
| 20260903155823 | 24 | 255 | 12.9 | 19.3 | 0.00 | 0.00 | 0.00 | 31 | 1023.0 |
| 20260903155322 | 24 | 272 | 6.4 | 9.7 | 0.00 | 0.00 | 0.00 | 30 | 1023.0 |
| 20260903154822 | 23 | 282 | 9.7 | 12.9 | 0.00 | 0.00 | 0.00 | 31 | 1023.0 |
| 20260903154322 | 23 | 282 | 12.9 | 20.9 | 0.00 | 0.00 | 0.00 | 32 | 1023.0 |
| 20260903153822 | 23 | 240 | 11.3 | 14.5 | 0.00 | 0.00 | 0.00 | 31 | 1023.0 |
| 20260903153323 | 23 | 234 | 6.4 | 9.7 | 0.00 | 0.00 | 0.00 | 31 | 1023.0 |
| 20260903152822 | 23 | 222 | 6.4 | 14.5 | 0.00 | 0.00 | 0.00 | 32 | 1023.0 |
| 20260903152322 | 23 | 264 | 3.2 | 4.8 | 0.00 | 0.00 | 0.00 | 33 | 1023.0 |
| 20260903151822 | 23 | 309 | 3.2 | 6.4 | 0.00 | 0.00 | 0.00 | 32 | 1023.0 |
| 20260903151323 | 23 | 170 | 3.2 | 6.4 | 0.00 | 0.00 | 0.00 | 32 | 1023.0 |
| 20260903150824 | 23 | 302 | 1.6 | 4.8 | 0.00 | 0.00 | 0.00 | 33 | 1023.0 |
| 20260903150322 | 23 | 16 | 3.2 | 8.0 | 0.00 | 0.00 | 0.00 | 32 | 1023.0 |
| 20260903145822 | 23 | 274 | 0.0 | 3.2 | 0.00 | 0.00 | 0.00 | 34 | 1023.0 |
| 20260903145324 | 22 | 161 | 8.0 | 12.9 | 0.00 | 0.00 | 0.00 | 34 | 1023.0 |
| 20260903144823 | 23 | 208 | 3.2 | 6.4 | 0.00 | 0.00 | 0.00 | 34 | 1023.0 |
| 20260903144322 | 23 | 23 | 3.2 | 4.8 | 0.00 | 0.00 | 0.00 | 34 | 1023.0 |
| 20260903143825 | 23 | 62 | 1.6 | 3.2 | 0.00 | 0.00 | 0.00 | 34 | 1023.0 |
| 20260903143323 | 22 | 307 | 1.6 | 3.2 | 0.00 | 0.00 | 0.00 | 34 | 1023.0 |
| 20260903142823 | 22 | 66 | 1.6 | 3.2 | 0.00 | 0.00 | 0.00 | 35 | 1023.0 |
| 20260903142324 | 21 | 337 | 1.6 | 4.8 | 0.00 | 0.00 | 0.00 | 37 | 1023.0 |
| 20260903141823 | 21 | 41 | 0.0 | 3.2 | 0.00 | 0.00 | 0.00 | 38 | 1023.0 |
| 20260903141323 | 21 | 293 | 1.6 | 4.8 | 0.00 | 0.00 | 0.00 | 38 | 1023.0 |
| 20260903140824 | 20 | 57 | 1.6 | 3.2 | 0.00 | 0.00 | 0.00 | 39 | 1023.0 |
| 20260903140323 | 19 | 348 | 3.2 | 6.4 | 0.00 | 0.00 | 0.00 | 39 | 1023.0 |
| 20260903135823 | 18 | 353 | 3.2 | 6.4 | 0.00 | 0.00 | 0.00 | 39 | 1023.0 |
| 20260903135322 | 18 | 343 | 6.4 | 9.7 | 0.00 | 0.00 | 0.00 | 41 | 1023.0 |
| 20260903134822 | 17 | 116 | 3.2 | 4.8 | 0.00 | 0.00 | 0.00 | 43 | 1023.0 |
| 20260903134324 | 17 | 17 | 6.4 | 9.7 | 0.00 | 0.00 | 0.00 | 45 | 1023.0 |
| 20260903133823 | 17 | 331 | 1.6 | 4.8 | 0.00 | 0.00 | 0.00 | 46 | 1023.0 |
| 20260903133322 | 17 | 297 | 3.2 | 4.8 | 0.00 | 0.00 | 0.00 | 45 | 1023.0 |
| 20260903132826 | 16 | 345 | 0.0 | 3.2 | 0.00 | 0.00 | 0.00 | 46 | 1023.0 |
| 20260903132322 | 16 | 39 | 1.6 | 3.2 | 0.00 | 0.00 | 0.00 | 47 | 1023.0 |
| 20260903131823 | 16 | 38 | 3.2 | 4.8 | 0.00 | 0.00 | 0.00 | 47 | 1022.0 |
| 20260903131322 | 16 | 146 | 1.6 | 3.2 | 0.00 | 0.00 | 0.00 | 47 | 1022.0 |
| 20260903130823 | 16 | 104 | 1.6 | 3.2 | 0.00 | 0.00 | 0.00 | 46 | 1022.0 |
| 20260903130325 | 16 | 95 | 1.6 | 3.2 | 0.00 | 0.00 | 0.00 | 46 | 1022.0 |
| 20260903125823 | 15 | 55 | 6.4 | 11.3 | 0.00 | 0.00 | 0.00 | 46 | 1022.0 |
| 20260903125322 | 15 | 188 | 3.2 | 9.7 | 0.00 | 0.00 | 0.00 | 46 | 1022.0 |
| 20260903124822 | 15 | 351 | 4.8 | 8.0 | 0.00 | 0.00 | 0.00 | 47 | 1022.0 |
| 20260903124324 | 14 | 157 | 3.2 | 4.8 | 0.00 | 0.00 | 0.00 | 51 | 1022.0 |
| 20260903123822 | 15 | 302 | 8.0 | 9.7 | 0.00 | 0.00 | 0.00 | 52 | 1022.0 |
| 20260903123322 | 15 | 124 | 3.2 | 4.8 | 0.00 | 0.00 | 0.00 | 52 | 1022.0 |
| 20260903122822 | 15 | 197 | 9.7 | 11.3 | 0.00 | 0.00 | 0.00 | 46 | 1022.0 |
| 20260903122323 | 15 | 28 | 0.0 | 1.6 | 0.00 | 0.00 | 0.00 | 45 | 1022.0 |
| 20260903121822 | 15 | 251 | 0.0 | 1.6 | 0.00 | 0.00 | 0.00 | 47 | 1022.0 |
| 20260903121322 | 15 | 284 | 3.2 | 6.4 | 0.00 | 0.00 | 0.00 | 51 | 1022.0 |
| 20260903120823 | 15 | 358 | 1.6 | 3.2 | 0.00 | 0.00 | 0.00 | 48 | 1022.0 |
| 20260903120323 | 15 | 360 | 0.0 | 0.0 | 0.00 | 0.00 | 0.00 | 51 | 1022.0 |